Showing default

FLOCK 4H 20, 66723

Orbit data source: Space-Track

FLOCK 4H 20, 66723 is a payload satellite owned by Planet (US) in SSO that was launched on Fri, 28 Nov 2025 UTC via an FALCON 9 launch vehicle from the Air Force Western Test Range (AFWTR). Payload-class satellites include a variety of spacecraft equipped with specific instruments for various scientific and technological missions. These include communications satellites like Starlink; space stations such as the ISS; scientific satellites like the Hubble; Earth observation satellites from companies like Planet Labs, Umbra, and HawkEye 360; GPS; miniature CubeSats for education and research; and military/defense satellites.

Loading next visibility...
Identifier
66723, 2025-276BK
Orbit
SSO
Country
Flag of USUS
Related business
Manufacturer
Planet
Mission
Operational Commercial Imaging
Bus & Motor
CUBESAT 3U, Unknown motor
Mass
5.7 kg wet, 5.7 kg dry
Launch date (UTC)
2025-11-28 (6 months ago)
Launch vehicle
FALCON 9
Launch site
Air Force Western Test Range (AFWTR)
Object type
Payload
Rocket body
Debris
Shape & HBR
Box + 2 Pan, 1.0 m
Radar Cross Section
0.072 m²

Expand to show TLE details & history
Last TLE update: 10 hours ago

TLE from 10 hours ago
0 FLOCK 4H 20
1 66723U 25276BK  26144.76911588  .00005039  00000-0  23127-3 0  9993
2 66723  97.4219 219.0315 0003396  51.7753 308.3788 15.20860308 26130
Epoch: 2026-05-24T18:27Z
TLE epoch observation values (Epoch: 2026-05-24T18:27:31.612Z)
Latitude
0.00002°
Longitude
59.78327°
Altitude
504.885 km
Speed
7.613 km/s
True Right ascension
14h 36m 07s
True Declination
0° 00' 00"
Sunlit
Object was in full shadow at epoch
Visualization orbit readout
Latitude
Unknown
Longitude
Unknown
Altitude
Unknown
Speed
Unknown
Apparent Right ascension
Unknown
Apparent Declination
Unknown
Sunlit
N/A
Visualization observer readout
Local Sidereal Time
13:54:09
Azimuth
Unknown
Elevation
Unknown
Doppler factor
Unknown
Orbital elements
Apogee altitude
502.546 km
Perigee altitude
497.874 km
Semi-major axis
6,878.347 km
Eccentricity
0.00034
Inclination
97.4219°
RAAN
219.0315°
Arg. of periapsis
51.7753°
True anomaly
308.34829°
Mean anomaly
308.3788°
Eccentric anomaly
308.36354°
Mean motion
3.80467 °/min
Orbital period
94.62 mins
BSTAR
0.00023127
Loading maneuver chart data...
Computing Atmospheric mass density...
Loading historical data...
Loading historical data...
Loading historical data...
Loading historical data...
Loading historical data...
Loading historical data...
Loading historical data...

Documentation

Showing up to 5 results
|